K0WU2AZO Weather Reports


time (UTC)temp
C
wind
direction
speed
KPH
gust
KPH
rain 1hr
cm
rain 24hr
cm
rain mn
cm
humidity
%
barometer
mb
20260503024448 8 260 0.0 0.0 0.00 0.20 0.20 90 1009.7
20260503022946 8 260 0.0 0.0 0.00 0.20 0.20 90 1009.7
20260503021446 8 260 0.0 0.0 0.00 0.20 0.20 90 1009.8
20260503015946 8 260 0.0 0.0 0.00 0.20 0.20 90 1010.1
20260503014445 8 260 0.0 0.0 0.00 0.20 0.20 90 1010.3
20260503012949 8 260 0.0 0.0 0.00 0.20 0.20 90 1010.1
20260503011449 8 260 0.0 0.0 0.00 0.20 0.20 89 1009.8
20260503005946 8 260 0.0 0.0 0.00 0.20 0.20 89 1009.6
20260503004445 8 260 0.0 0.0 0.00 0.20 0.20 89 1009.5
20260503002945 8 260 0.0 0.0 0.00 0.20 0.20 89 1009.5
20260503001449 8 260 0.0 0.0 0.00 0.20 0.20 88 1009.6
20260502235948 9 260 0.0 0.0 0.00 0.20 0.20 87 1009.5
20260502234448 9 260 0.0 0.0 0.00 0.20 0.20 87 1009.6
20260502232945 9 260 0.0 0.0 0.00 0.20 0.20 87 1009.4
20260502231446 9 260 0.0 0.0 0.03 0.20 0.20 87 1009.5
20260502225945 9 260 0.0 0.0 0.03 0.20 0.20 87 1009.3
20260502224448 9 260 0.0 1.6 0.03 0.20 0.20 87 1009.4
20260502222948 10 260 0.0 0.0 0.03 0.20 0.20 86 1009.5
20260502221447 10 260 0.0 0.0 0.00 0.18 0.18 85 1009.5
20260502215946 10 260 0.0 3.2 0.00 0.18 0.18 84 1009.5
20260502214445 11 253 0.0 6.4 0.00 0.18 0.18 81 1009.6
20260502212949 12 30 1.6 6.4 0.00 0.18 0.18 75 1009.5
20260502211450 12 256 1.6 4.8 0.00 0.18 0.18 73 1009.5
20260502205949 12 174 1.6 6.4 0.00 0.18 0.18 72 1009.2
20260502204448 13 241 3.2 6.4 0.00 0.18 0.18 69 1009.2
20260502202947 13 247 1.6 4.8 0.00 0.18 0.18 70 1009.2
20260502201445 12 265 1.6 6.4 0.00 0.18 0.18 71 1009.5
20260502195950 12 53 3.2 8.0 0.00 0.18 0.18 71 1009.4
20260502194449 12 264 1.6 6.4 0.00 0.18 0.18 70 1009.7
20260502192951 13 200 4.8 9.7 0.00 0.18 0.18 66 1010.0
20260502191450 12 119 4.8 8.0 0.00 0.18 0.18 69 1010.1
20260502185945 12 56 3.2 9.7 0.00 0.18 0.18 76 1010.2
20260502184448 12 133 4.8 8.0 0.00 0.18 0.18 76 1010.2
20260502182951 11 143 1.6 4.8 0.00 0.18 0.18 81 1010.3
20260502181449 11 153 1.6 4.8 0.00 0.18 0.18 81 1010.3
20260502162951 12 158 0.0 3.2 0.00 0.18 0.18 73 1010.8
20260502161448 12 229 0.0 1.6 0.00 0.18 0.18 77 1010.8
20260502151449 12 253 1.6 4.8 0.00 0.18 0.18 82 1011.4
20260502122950 9 229 0.0 1.6 0.00 0.03 0.03 86 1012.3
20260502121451 9 250 0.0 1.6 0.00 0.03 0.03 87 1011.7
20260502114450 8 250 0.0 0.0 0.03 0.03 0.03 89 1011.4
20260502112948 8 250 0.0 1.6 0.03 0.03 0.03 89 1011.5
20260502111450 8 229 0.0 1.6 0.03 0.03 0.03 89 1011.5
20260502105950 8 229 0.0 1.6 0.03 0.03 0.03 88 1011.3
20260502104449 8 229 0.0 1.6 0.00 0.00 0.00 88 1011.3
20260502102950 7 269 0.0 1.6 0.00 0.00 0.00 87 1011.0
20260502101450 7 269 0.0 1.6 0.00 0.00 0.00 88 1010.9
20260502091449 7 3 0.0 0.0 0.00 0.00 0.00 85 1010.5
20260502071449 8 245 0.0 1.6 0.00 0.00 0.00 82 1010.8
20260502065950 8 167 0.0 3.2 0.00 0.00 0.00 80 1010.9
20260502064452 8 225 0.0 1.6 0.00 0.03 0.00 78 1011.3
20260502062953 8 221 0.0 0.0 0.00 0.05 0.00 77 1011.0
20260502061450 7 221 0.0 1.6 0.00 0.08 0.00 78 1010.9
20260502055951 7 221 0.0 0.0 0.00 0.08 0.00 78 1010.9
20260502054446 7 221 0.0 0.0 0.00 0.08 0.00 76 1011.1
20260502052951 7 221 0.0 0.0 0.00 0.08 0.00 74 1011.0
20260502051451 7 221 0.0 0.0 0.00 0.08 0.00 76 1011.1
20260502045951 7 221 0.0 0.0 0.00 0.08 0.00 75 1010.9
20260502044452 7 221 0.0 0.0 0.00 0.08 0.00 73 1011.0
20260502042950 7 221 0.0 0.0 0.00 0.08 0.00 74 1011.3
20260502041450 7 221 0.0 0.0 0.00 0.08 0.00 74 1011.2
20260502035951 7 221 0.0 0.0 0.00 0.08 0.00 75 1011.1
20260502034452 7 221 0.0 0.0 0.00 0.08 0.08 74 1011.1
20260502032953 7 221 0.0 0.0 0.00 0.08 0.08 76 1011.2
20260502031451 7 221 0.0 0.0 0.00 0.08 0.08 78 1011.0
20260502025950 7 221 0.0 1.6 0.00 0.08 0.08 78 1010.9